Weather History for KMUT - November, 2013

Change the Weather History Date:

Wednesday, November 27, 2013

  Actual Average Record
Temperature  
Mean Temperature 19 °F -  
Max Temperature 28 °F 42 °F 69 °F (1990)
Min Temperature 10 °F 28 °F 7 °F (1959)
Degree Days  
Heating Degree Days 46    
Moisture  
Dew Point 8 °F    
Average Humidity 62    
Maximum Humidity 85    
Minimum Humidity 40    
Precipitation  
Precipitation 0.00 in - - ()
Sea Level Pressure  
Sea Level Pressure 30.30 in    
Wind  
Wind Speed 8 mph (WNW)    
Max Wind Speed 14 mph    
Max Gust Speed 14 mph    
Visibility 10 miles    
Events      
Averages and records for this station are not official NWS values.
T = Trace of Precipitation, MM = Missing Value Source: NWS Daily Summary

Daily Weather History Graph

Daily Weather History Graph

Search for Another Location

Airport or City:

Trip Planner

Search our weather history database for the weather conditions in past years. The results will help you decide how hot, cold, wet, or windy it might be!

Date:

Astronomy

Nov. 27, 2013 Rise Set
Actual Time 7:07 AM CST 4:37 PM CST
Civil Twilight 6:36 AM CST 5:07 PM CST
Nautical Twilight 6:02 AM CST 5:41 PM CST
Astronomical Twilight 5:29 AM CST 6:15 PM CST
Moon 1:05 AM CST (11/27) 1:17 PM CST (11/27)
Length of Visible Light 10h 31m
Length of Day
9h 30m
Waning Crescent, 31% of the Moon is Illuminated
Nov 27
Waning Crescent
Dec 2
New
Dec 9
First Quarter
Dec 17
Full
Dec 25
Last Quarter

Hourly Weather History & Observations

Time (CST) Temp. Windchill Dew Point Humidity Pressure Visibility Wind Dir Wind Speed Gust Speed Precip Events Conditions
12:15 AM 15.8 °F 6.1 °F 6.8 °F 68% 30.31 in 10.0 mi NNW 6.9 mph - N/A   Clear
12:35 AM 15.8 °F 4.2 °F 6.8 °F 68% 30.30 in 10.0 mi NW 9.2 mph - N/A   Clear
12:55 AM 15.8 °F 6.1 °F 6.8 °F 68% 30.30 in 10.0 mi NNW 6.9 mph - N/A   Clear
1:15 AM 15.8 °F 4.2 °F 6.8 °F 68% 30.31 in 10.0 mi NNW 9.2 mph - N/A   Clear
1:35 AM 15.8 °F 4.2 °F 6.8 °F 68% 30.31 in 10.0 mi NNW 9.2 mph - N/A   Clear
1:55 AM 15.8 °F 4.2 °F 6.8 °F 68% 30.32 in 10.0 mi NNW 9.2 mph - N/A   Clear
2:15 AM 14.0 °F 2.0 °F 6.8 °F 73% 30.32 in 10.0 mi NNW 9.2 mph - N/A   Clear
2:35 AM 15.8 °F 4.2 °F 6.8 °F 68% 30.32 in 10.0 mi NNW 9.2 mph - N/A   Clear
2:55 AM 14.0 °F 2.0 °F 6.8 °F 73% 30.32 in 10.0 mi NW 9.2 mph - N/A   Clear
3:15 AM 14.0 °F 2.9 °F 6.8 °F 73% 30.32 in 10.0 mi NNW 8.1 mph - N/A   Clear
3:35 AM 14.0 °F 2.9 °F 6.8 °F 73% 30.32 in 10.0 mi NW 8.1 mph - N/A   Clear
3:55 AM 12.2 °F 0.7 °F 6.8 °F 79% 30.33 in 10.0 mi NW 8.1 mph - N/A   Clear
4:15 AM 12.2 °F 0.7 °F 6.8 °F 79% 30.33 in 10.0 mi NW 8.1 mph - N/A   Clear
4:35 AM 12.2 °F 0.7 °F 6.8 °F 79% 30.33 in 10.0 mi NW 8.1 mph - N/A   Clear
4:55 AM 12.2 °F 0.7 °F 6.8 °F 79% 30.34 in 10.0 mi NW 8.1 mph - N/A   Clear
5:15 AM 12.2 °F 1.7 °F 6.8 °F 79% 30.34 in 10.0 mi NW 6.9 mph - N/A   Clear
5:35 AM 12.2 °F -0.2 °F 6.8 °F 79% 30.34 in 10.0 mi NW 9.2 mph - N/A   Clear
5:55 AM 12.2 °F 0.7 °F 6.8 °F 79% 30.35 in 10.0 mi NW 8.1 mph - N/A   Clear
6:15 AM 10.4 °F -1.5 °F 6.8 °F 85% 30.35 in 10.0 mi NW 8.1 mph - N/A   Clear
6:35 AM 10.4 °F -2.4 °F 6.8 °F 85% 30.35 in 10.0 mi NW 9.2 mph - N/A   Clear
6:55 AM 12.2 °F -0.2 °F 6.8 °F 79% 30.36 in 10.0 mi NW 9.2 mph - N/A   Clear
7:15 AM 12.2 °F -1.0 °F 6.8 °F 79% 30.36 in 10.0 mi NW 10.4 mph - N/A   Clear
7:35 AM 12.2 °F -0.2 °F 6.8 °F 79% 30.37 in 10.0 mi NW 9.2 mph - N/A   Clear
7:55 AM 14.0 °F 1.2 °F 6.8 °F 73% 30.37 in 10.0 mi NW 10.4 mph - N/A   Clear
8:15 AM 14.0 °F 2.0 °F 6.8 °F 73% 30.37 in 10.0 mi NW 9.2 mph - N/A   Clear
8:35 AM 15.8 °F 1.4 °F 6.8 °F 68% 30.37 in 10.0 mi NNW 13.8 mph - N/A   Clear
8:55 AM 15.8 °F 2.1 °F 8.6 °F 73% 30.37 in 10.0 mi NNW 12.7 mph - N/A   Clear
9:15 AM 17.6 °F 5.0 °F 8.6 °F 68% 30.37 in 10.0 mi NNW 11.5 mph - N/A   Clear
9:35 AM 19.4 °F 9.5 °F 8.6 °F 63% 30.37 in 10.0 mi NNW 8.1 mph - N/A   Clear
9:55 AM 19.4 °F 10.4 °F 8.6 °F 63% 30.37 in 10.0 mi NNW 6.9 mph - N/A   Clear
10:15 AM 21.2 °F 10.9 °F 8.6 °F 58% 30.36 in 10.0 mi NNW 9.2 mph - N/A   Clear
10:35 AM 23.0 °F 14.7 °F 8.6 °F 54% 30.36 in 10.0 mi NW 6.9 mph 13.8 mph N/A   Clear
10:55 AM 23.0 °F 13.9 °F 8.6 °F 54% 30.35 in 10.0 mi NNW 8.1 mph - N/A   Clear
11:15 AM 24.8 °F 17.9 °F 8.6 °F 50% 30.34 in 10.0 mi NW 5.8 mph 13.8 mph N/A   Clear
11:35 AM 24.8 °F 16.1 °F 8.6 °F 50% 30.34 in 10.0 mi Variable 8.1 mph - N/A   Clear
11:55 AM 26.6 °F 19.1 °F 8.6 °F 47% 30.34 in 10.0 mi WNW 6.9 mph 13.8 mph N/A   Clear
12:15 PM 26.6 °F 17.5 °F 6.8 °F 43% 30.33 in 10.0 mi WNW 9.2 mph - N/A   Clear
12:35 PM 26.6 °F 21.2 °F 6.8 °F 43% 30.32 in 10.0 mi Variable 4.6 mph - N/A   Clear
12:55 PM 26.6 °F 19.1 °F 8.6 °F 47% 30.31 in 10.0 mi West 6.9 mph - N/A   Clear
1:15 PM 26.6 °F 21.2 °F 6.8 °F 43% 30.31 in 10.0 mi NW 4.6 mph 11.5 mph N/A   Clear
1:35 PM 28.4 °F 20.4 °F 6.8 °F 40% 30.30 in 10.0 mi WNW 8.1 mph 13.8 mph N/A   Clear
1:55 PM 28.4 °F 18.5 °F 6.8 °F 40% 30.30 in 10.0 mi WNW 11.5 mph - N/A   Clear
2:15 PM 28.4 °F 18.5 °F 8.6 °F 43% 30.29 in 10.0 mi WNW 11.5 mph - N/A   Clear
2:35 PM 28.4 °F 19.7 °F 6.8 °F 40% 30.28 in 10.0 mi WNW 9.2 mph - N/A   Clear
2:55 PM 28.4 °F 22.2 °F 6.8 °F 40% 30.28 in 10.0 mi Variable 5.8 mph - N/A   Clear
3:15 PM 28.4 °F 22.2 °F 6.8 °F 40% 30.27 in 10.0 mi West 5.8 mph - N/A   Clear
3:35 PM 28.4 °F 21.2 °F 6.8 °F 40% 30.27 in 10.0 mi SW 6.9 mph - N/A   Clear
3:55 PM 26.6 °F 20.0 °F 6.8 °F 43% 30.27 in 10.0 mi West 5.8 mph - N/A   Clear
4:15 PM 26.6 °F 20.0 °F 6.8 °F 43% 30.26 in 10.0 mi WSW 5.8 mph - N/A   Clear
4:35 PM 24.8 °F 19.1 °F 8.6 °F 50% 30.26 in 10.0 mi WSW 4.6 mph - N/A   Clear
4:55 PM 24.8 °F 19.1 °F 8.6 °F 50% 30.26 in 10.0 mi WSW 4.6 mph - N/A   Clear
5:15 PM 24.8 °F 20.5 °F 8.6 °F 50% 30.26 in 10.0 mi SSW 3.5 mph - N/A   Partly Cloudy
5:35 PM 24.8 °F 20.5 °F 10.4 °F 54% 30.26 in 10.0 mi SW 3.5 mph - N/A   Scattered Clouds
5:55 PM 24.8 °F 19.1 °F 10.4 °F 54% 30.26 in 10.0 mi SSW 4.6 mph - N/A   Partly Cloudy
6:15 PM 23.0 °F 17.0 °F 12.2 °F 63% 30.25 in 10.0 mi SSW 4.6 mph - N/A   Clear
6:35 PM 23.0 °F 18.4 °F 10.4 °F 59% 30.25 in 10.0 mi SSW 3.5 mph - N/A   Clear
6:55 PM 23.0 °F 18.4 °F 10.4 °F 59% 30.24 in 10.0 mi South 3.5 mph - N/A   Clear
7:15 PM 21.2 °F 14.9 °F 10.4 °F 63% 30.23 in 10.0 mi SSE 4.6 mph - N/A   Clear
7:35 PM 21.2 °F - 12.2 °F 68% 30.24 in 10.0 mi Calm Calm - N/A   Partly Cloudy
7:55 PM 21.2 °F - 12.2 °F 68% 30.24 in 10.0 mi Calm Calm - N/A   Partly Cloudy
8:15 PM 21.2 °F 14.9 °F 12.2 °F 68% 30.24 in 10.0 mi South 4.6 mph - N/A   Clear
8:35 PM 21.2 °F 12.6 °F 12.2 °F 68% 30.23 in 10.0 mi SSE 6.9 mph - N/A   Partly Cloudy
8:55 PM 23.0 °F 12.4 °F 10.4 °F 59% 30.20 in 10.0 mi SSE 10.4 mph - N/A   Partly Cloudy
9:15 PM 24.8 °F 16.9 °F 10.4 °F 54% 30.20 in 10.0 mi South 6.9 mph 13.8 mph N/A   Partly Cloudy
9:35 PM 23.0 °F 13.9 °F 10.4 °F 59% 30.22 in 10.0 mi South 8.1 mph - N/A   Mostly Cloudy
9:55 PM 23.0 °F 15.8 °F 10.4 °F 59% 30.24 in 10.0 mi South 5.8 mph - N/A   Scattered Clouds
10:15 PM 23.0 °F 17.0 °F 10.4 °F 59% 30.24 in 10.0 mi South 4.6 mph - N/A   Scattered Clouds
10:35 PM 23.0 °F 15.8 °F 10.4 °F 59% 30.23 in 10.0 mi SSE 5.8 mph - N/A   Partly Cloudy
10:55 PM 23.0 °F 17.0 °F 10.4 °F 59% 30.23 in 10.0 mi SE 4.6 mph - N/A   Clear
11:15 PM 21.2 °F 14.9 °F 12.2 °F 68% 30.23 in 10.0 mi SE 4.6 mph - N/A   Clear
11:35 PM 21.2 °F 14.9 °F 12.2 °F 68% 30.23 in 10.0 mi SE 4.6 mph - N/A   Scattered Clouds
11:55 PM 23.0 °F - 12.2 °F 63% 30.22 in 10.0 mi Calm Calm - N/A   Overcast